Location: Bleckenstedt
(52.1776°N, 10.4072°E)
Time: 11:03:32
(UTC+00:00)

Daily predictions for brighter satellites

Satellite Brightness Start Highest point End
(mag) Time Altitude Azimuth Time Altitude Azimuth Time Altitude Azimuth
Cosmos 2360 Rocket 2.2 18:39:35 10° SSW 18:45:07 62° ESE 18:50:42 10° NE
COSMO-SKYMED 1 4.0 18:41:54 10° N 18:45:48 42° WNW 18:49:41 10° SW
Okean-O 4.1 18:44:00 10° ESE 18:47:18 21° ENE 18:50:37 10° N
BlueWalker 3 4.4 18:46:08 10° WSW 18:47:51 13° SW 18:49:33 10° SSW
Cosmos 2184 Rocket 4.1 18:46:40 10° S 18:52:59 70° E 18:59:19 10° NNE
Cosmos 2322 Rocket 2.2 18:47:27 10° SSW 18:53:02 76° ESE 18:58:40 10° NNE
Cosmos 1666 Rocket 3.6 18:51:00 10° S 18:55:17 85° W 18:59:38 10° N
Cosmos 1633 Rocket 3.0 18:51:59 10° S 18:56:21 83° E 19:00:45 10° NNE
Cosmos 1340 Rocket 2.7 18:53:21 10° SSW 18:57:01 80° WNW 19:00:42 10° N
ADEOS 3.9 18:53:20 10° SE 18:58:19 50° ENE 19:03:22 10° N
Feng Yun 1-1 Rocket 4.3 18:54:11 10° SSE 18:59:44 69° ENE 19:05:11 10° NNW
BREEZE-M DEB (TANK) 3.3 18:58:11 10° SSW 19:00:03 22° SSE 19:02:34 10° E
SL-16 R/B 2.8 18:55:24 10° SW 19:01:02 63° NW 19:06:41 10° NNE
Terra 2.1 18:56:43 10° SE 19:01:14 49° ENE 19:05:46 10° N
ATLAS 5 CENTAUR R/B 3.1 18:59:41 10° W 19:02:16 24° NNW 19:05:08 10° NNE
MOS 1 4.4 18:57:56 10° SSE 19:03:31 66° ENE 19:09:08 10° NNW
CSL-04 Debris 4.2 18:58:31 10° SSE 19:03:53 84° WSW 19:09:18 10° NNW
CZ-4 R/B 1.2 19:02:18 10° SSE 19:06:06 89° WSW 19:09:54 10° NNW
Cosmos 1898 Rocket 3.5 19:01:01 10° S 19:06:12 65° ESE 19:11:22 10° NNE
Resurs 01 Rocket 4.1 19:04:50 10° SSW 19:08:23 24° W 19:11:57 10° NW
SL-08 R/B 4.2 19:04:19 10° NNE 19:08:38 30° E 19:12:57 10° SSE
Okean O Rocket 2.5 19:06:43 11° SE 19:10:22 33° ENE 19:14:16 10° N
Meteor 1-24 Rocket 4.3 19:07:49 10° NNW 19:13:07 58° W 19:18:35 10° S
IRS-1A Rocket 4.5 19:09:44 10° SE 19:15:07 55° ENE 19:20:39 10° N
Cosmos 2333 4.1 19:10:08 10° SSW 19:15:44 83° ESE 19:21:22 10° NNE
Cosmos 372 Rocket 4.1 19:11:50 10° SSW 19:17:03 83° WNW 19:22:20 10° NNE
Cosmos 1680 Rocket 3.5 19:12:10 10° NNW 19:17:25 73° ENE 19:22:22 11° SSE
CZ-4B R/B 4.3 19:16:53 13° E 19:18:38 18° ENE 19:21:05 10° NNE
Cosmos 2219 Rocket 2.1 19:16:01 10° SSW 19:21:34 72° ESE 19:27:10 10° NNE
SPOT 5 3.7 19:16:58 10° S 19:21:35 50° W 19:26:01 10° NNW
Cosmos 2074 Rocket 4.3 19:18:32 10° SSW 19:24:45 73° WNW 19:31:02 10° N
Meteor 1-31 Rocket 3.7 19:23:10 10° S 19:26:32 43° W 19:29:56 10° NNW
Cosmos 1937 Rocket 3.5 19:22:28 10° SSW 19:27:44 73° ESE 19:33:02 10° NNE
SL-24 R/B - RUBIN 2 3.6 19:27:24 10° NW 19:31:48 79° SW 19:35:17 17° SE
Cosmos 923 Rocket 4.3 19:28:04 10° NNW 19:33:22 68° WSW 19:38:35 10° SSE
USA 234 3.2 19:27:07 10° ENE 19:33:44 85° SSE 19:40:19 10° WSW
Cosmos 2369 Rocket 4.2 19:30:45 10° NNW 19:34:19 17° NNE 19:37:52 10° ENE
USA 186 1.6 19:34:28 30° ENE 19:34:35 30° ENE 19:36:32 10° N
Cosmos 2112 Rocket 4.0 19:29:44 10° NNW 19:34:59 83° ENE 19:39:16 15° SSE
SL-8 Rocket 4.2 19:31:00 10° SSE 19:36:58 51° E 19:43:02 10° NNE
NOSS 2-3 (E) 4.3 19:32:22 10° NW 19:37:14 76° SW 19:42:20 17° SE
USA 238 DEB 4.2 19:31:38 10° NW 19:38:43 61° NE 19:44:50 17° ESE
USA 238 4.2 19:31:48 10° NW 19:38:53 60° NE 19:45:00 17° ESE
COSMOS 2428 3.2 19:33:46 10° S 19:38:58 37° ESE 19:44:12 10° NE
NOSS 2-3 (C) 4.1 19:35:55 10° NW 19:40:42 88° SW 19:45:27 19° SE
Cosmos 1241 Rocket 4.5 19:34:51 10° NW 19:41:08 87° NE 19:45:52 19° SE
Cosmos 1953 4.2 19:37:58 10° SW 19:41:09 29° WNW 19:44:22 10° N
CZ-4B R/B 3.4 19:35:49 10° SSE 19:41:21 79° WSW 19:47:01 10° NNW
MetOp-B 4.3 19:36:23 10° SSE 19:41:46 77° WSW 19:47:10 10° NNW
USA 245 4.3 19:40:43 22° ESE 19:42:43 36° ENE 19:47:01 10° N
Cosmos 2278 Rocket 2.5 19:38:30 10° NNW 19:44:07 57° NE 19:47:49 21° SE
SKYMED 3 4.2 19:41:08 10° NNE 19:45:02 70° ESE 19:48:53 10° S
Cosmos 2366 rocket 4.1 19:40:58 10° SSE 19:46:56 54° E 19:52:54 10° NNE
NOSS 3-2 (C) 4.3 19:42:02 10° NW 19:49:08 64° SW 19:56:23 15° SSE
Ariane Rocket 3.8 19:46:48 21° ESE 19:49:24 34° ENE 19:53:56 10° N
Cosmos 2327 Rocket 4.4 19:44:08 10° S 19:50:17 79° E 19:56:35 10° NNE
Cosmos 2333 Rocket 3.8 19:45:17 10° WSW 19:50:33 39° NW 19:55:51 10° NNE
Geosat 4.0 19:48:34 10° NNE 19:53:37 86° WNW 19:58:37 10° SW
Cosmos 1346 Rocket 4.3 19:54:19 10° NNE 19:56:51 18° ENE 19:57:18 17° ENE
BREEZE-M DEB (TANK) 2.3 19:54:40 10° W 19:57:13 57° S 19:59:33 25° ESE
USA 32 4.2 19:53:57 19° SSE 19:57:29 50° E 20:02:32 10° NNE
Spot 2 Rocket 3.4 19:53:55 18° SSE 19:57:43 85° ENE 20:02:46 10° NNW
Lacrosse 5 rocket 0.8 19:57:15 10° SW 20:00:19 46° SE 20:00:41 44° ESE
Cosmos 1809 Rocket 4.4 19:54:19 10° N 20:00:30 78° ENE 20:05:08 19° SSE
CZ-2C R/B 3.3 20:00:39 27° ENE 20:00:41 27° ENE 20:03:13 10° N
ARIANE 6 FM1 Upper Stage 3.0 19:57:39 10° WSW 20:01:45 63° NW 20:05:45 10° NE
Cosmos 1378 Rocket 4.1 19:57:35 10° N 20:01:48 42° ENE 20:03:21 30° ESE
ERS-1 Rocket 3.9 19:58:43 10° S 20:03:31 46° W 20:08:21 10° NNW
Cosmos 1933 Rocket 3.9 20:01:37 10° SSW 20:05:58 66° WNW 20:10:21 10° N
Cosmos 1943 Rocket 2.2 20:04:01 10° NNW 20:09:44 87° WSW 20:12:59 27° SSE
YAOGAN 11 3.9 20:06:33 10° NNE 20:10:47 73° ESE 20:13:55 18° S
Cosmos 614 Rocket 4.4 20:07:02 10° NNW 20:12:05 49° ENE 20:14:15 30° ESE
Cosmos 2218 Rocket 3.9 20:06:11 10° S 20:12:18 74° E 20:18:26 10° NNE
Meteor 1-11 4.2 20:08:07 10° N 20:13:43 68° ENE 20:16:33 29° SSE
USA 59 Rocket 0.4 20:13:24 10° NW 20:16:21 37° NE 20:17:17 31° ENE
Meteor 2-15 4.4 20:11:09 14° S 20:16:24 70° E 20:22:28 10° NNE
Cosmos 1733 Rocket 3.1 20:18:20 38° SSE 20:19:41 54° E 20:23:58 10° NNE
Cosmos 192 4.4 20:18:37 27° S 20:21:04 52° ESE 20:25:51 10° NNE
SeaSat 1 3.3 20:19:54 26° E 20:21:58 38° NE 20:26:29 10° NNW
Cosmos 1959 Rocket 4.5 20:15:52 10° S 20:22:09 81° E 20:28:31 10° NNE
CZ-4B R/B 3.3 20:20:21 34° SSE 20:22:26 72° ENE 20:27:14 10° NNW
NOSS 3-4 (A) 3.8 20:23:13 32° ESE 20:23:13 32° ESE 20:27:59 10° ENE
Okean-O 3.0 20:20:35 23° S 20:23:13 59° WSW 20:27:34 10° NNW
IRS-1C Rocket 4.2 20:20:58 33° SE 20:23:17 64° ENE 20:28:32 10° N
NOSS 3-4 (C) 3.8 20:23:46 31° ESE 20:23:46 31° ESE 20:28:30 10° ENE
ATLAS 3B R/B 4.0 20:18:58 10° W 20:26:29 48° NNW 20:34:06 10° NE
Cosmos 1821 Rocket 3.9 20:22:24 20° S 20:26:46 70° E 20:33:04 10° NNE
Cosmos 1048 Rocket 4.0 20:22:26 10° NNW 20:27:34 78° WSW 20:29:52 33° SSE
Cosmos 2360 Rocket 4.0 20:24:26 10° WSW 20:29:30 33° NW 20:34:36 10° NNE
Timation 2 Rocket 4.0 20:26:55 10° NW 20:33:10 82° WSW 20:36:19 33° SSE
NOSS 2-1 (E) 3.9 20:31:56 10° NW 20:34:54 36° NE 20:35:21 34° NE
NOSS 2-1 (C) 3.7 20:33:37 10° NW 20:36:37 41° NE 20:36:58 39° NE
Cosmos 2322 Rocket 4.3 20:32:49 10° W 20:37:38 28° NW 20:42:29 10° NNE
Aureole 3 3.6 20:34:26 10° NNW 20:38:27 81° W 20:40:03 41° S
Terra 3.7 20:35:07 10° SSW 20:39:00 25° W 20:42:55 10° NW
Meteor 2-21 4.5 20:33:12 10° NNW 20:39:20 78° W 20:42:49 27° S
NOSS 2-1 (D) 3.4 20:39:17 10° NW 20:42:22 51° NE 20:42:32 50° NE
Cosmos 468 4.4 20:38:29 10° NNW 20:43:45 86° ENE 20:45:23 46° SSE
Cosmos 2242 Rocket 3.9 20:40:15 10° NNW 20:44:42 62° W 20:46:21 36° SSW
ATLAS 5 CENTAUR R/B 3.9 20:43:34 10° NW 20:45:30 14° N 20:47:37 10° NE
SL-08 R/B 4.5 20:41:46 10° N 20:46:24 45° WNW 20:51:02 10° SW
Okean O Rocket 3.0 20:43:57 19° SSW 20:46:31 34° W 20:50:31 10° NNW
Cosmos 1000 Rocket 4.4 20:40:27 10° N 20:46:40 75° ENE 20:49:04 39° SSE
Cosmos 1025 Rocket 2.8 20:44:45 10° N 20:48:59 70° ENE 20:49:24 64° ESE
Cosmos 2237 Rocket 2.3 20:47:31 41° SSE 20:49:04 54° ESE 20:54:38 10° NE
Cosmos 1980 3.7 20:47:57 38° S 20:49:53 58° ESE 20:55:26 10° NE
Cosmos 1125 Rocket 3.7 20:51:20 47° ESE 20:51:36 48° ESE 20:56:39 10° NE
CZ-4B R/B 3.2 20:51:35 43° SW 20:52:08 48° W 20:55:35 10° NNW
Cosmos 2292 Rocket 3.9 20:46:50 10° N 20:52:49 81° E 20:54:03 52° SSE
ASTEX 1 3.7 20:50:47 32° SSW 20:52:55 63° W 20:57:49 10° N
Cosmos 2322 4.0 20:47:28 10° SW 20:53:09 67° NW 20:58:53 10° NNE
Cosmos 1400 Rocket 2.8 21:03:02 66° N 21:03:02 66° N 21:06:13 10° NNE
ARIANE 5 R/B 4.4 21:02:50 18° ENE 21:03:05 18° ENE 21:06:03 10° NNE
SPOT 3 Rocket 4.1 21:02:11 34° SSW 21:04:13 54° W 21:09:20 10° NNW
Cosmos 1975 Rocket 4.3 21:00:48 10° N 21:04:32 28° ENE 21:04:32 28° ENE
Cosmos 2219 Rocket 4.1 21:01:12 10° W 21:06:02 29° NW 21:10:54 10° NNE
SL-08 R/B 4.4 21:11:04 48° SSE 21:12:49 73° E 21:18:56 10° NNE
Molniya-1 4.4 21:15:26 43° ENE 21:15:26 43° ENE 21:20:54 10° NE
USA 234 3.7 21:10:11 10° ENE 21:16:38 62° N 21:23:04 10° W
Cosmos 1674 Rocket 4.0 21:15:20 10° NNW 21:19:30 52° W 21:19:57 49° WSW
Cosmos 2369 Rocket 2.7 21:14:17 10° NNW 21:19:45 49° NE 21:20:57 42° E
Cosmos 1908 Rocket 3.7 21:22:14 62° NE 21:22:14 62° NE 21:26:02 10° NNE
Helios 1B rocket 3.3 21:23:49 36° NNE 21:23:49 36° NNE 21:26:11 10° N
COSMOS 2428 3.6 21:17:32 10° SW 21:23:06 50° NW 21:28:41 10° NNE
NOSS 0 Rocket 4.2 21:19:47 10° SW 21:26:00 70° NW 21:32:16 10° NNE
Cosmos 2278 Rocket 3.4 21:22:58 10° NW 21:27:55 31° WSW 21:29:39 26° SW
Ariane Rocket 3.8 21:26:52 35° SW 21:28:12 42° W 21:32:59 10° NNW
USA 238 DEB 4.3 21:22:41 10° NW 21:29:47 52° SW 21:32:16 39° S
USA 238 4.3 21:22:51 10° NW 21:29:57 53° SW 21:32:26 39° S
Cosmos 2221 Rocket 3.7 21:25:50 10° NNW 21:30:11 67° W 21:30:11 67° W
Cosmos 1346 Rocket 3.7 21:28:44 10° NNW 21:31:34 40° WNW 21:31:34 40° WNW
Helios 1A 4.0 21:30:20 10° NNE 21:32:54 36° NE 21:32:54 36° NE
Lacrosse 5 rocket 3.7 21:33:55 10° W 21:34:05 11° W 21:34:05 11° W
Cosmos 2058 4.2 21:39:11 10° N 21:41:48 32° NNE 21:41:48 32° NNE
DNEPR-1 R/B 3.8 21:45:57 64° NNW 21:45:57 64° NNW 21:50:14 10° NE
Cosmos 1656 Rocket 3.7 21:44:39 10° NW 21:50:01 61° WSW 21:50:17 60° SW
Cosmos 1943 Rocket 4.2 21:49:01 10° WNW 21:52:39 18° W 21:54:29 15° WSW
SJ 16-02 3.5 21:53:34 10° N 21:56:17 16° NE 21:56:47 16° NE
SL-16 R/B 2.7 21:58:05 47° ENE 21:58:05 47° ENE 22:02:36 10° NE
SeaSat 1 3.0 21:59:30 47° WSW 21:59:30 47° WSW 22:04:02 10° NW
Cosmos 2298 Rocket 4.4 22:03:45 52° ENE 22:03:45 52° ENE 22:08:03 10° NNE
CZ-2C R/B 4.2 22:02:52 24° ENE 22:04:00 25° ENE 22:08:26 10° N
USA 59 Rocket 2.0 22:01:50 10° WNW 22:02:48 17° WNW 22:02:48 17° WNW
Cosmos 1934 Rocket 4.2 22:03:44 47° SW 22:05:28 65° WNW 22:11:42 10° N
Cosmos 1447 Rocket 4.3 21:59:33 10° N 22:05:54 80° ENE 22:06:34 71° SE
Cosmos 1140 Rocket 3.6 22:03:46 10° NNW 22:08:44 64° NE 22:08:44 64° NE
Cosmos 921 Rocket 4.1 22:04:42 10° NNW 22:08:19 40° NE 22:08:19 40° NE
Cosmos 2346 Rocket 4.3 22:03:17 10° N 22:09:25 88° W 22:09:59 75° S
NOSS 3-4 (A) 3.5 22:10:28 28° WSW 22:13:21 64° NW 22:19:25 10° NE
NOSS 3-4 (C) 3.5 22:11:02 29° WSW 22:13:51 65° NW 22:19:57 10° NE
Cosmos 1300 Rocket 4.4 22:17:13 47° NW 22:17:13 47° NW 22:20:40 10° N
ATLAS 3B R/B 4.5 22:11:56 10° WNW 22:19:04 35° N 22:26:07 10° ENE
Cosmos 2285 Rocket 3.9 22:19:17 74° SSW 22:19:55 88° ESE 22:26:19 10° NNE
Cosmos 967 Rocket 4.3 22:19:50 10° NW 22:26:21 85° SW 22:26:47 79° SSE
NOSS 3-1 (C) 3.8 22:20:16 10° NW 22:27:02 88° SW 22:28:43 60° SE
Cosmos 1535 Rocket 4.5 22:26:51 62° WSW 22:27:38 69° WNW 22:33:46 10° N
ALOS 2 3.4 22:29:40 50° N 22:29:40 50° N 22:33:00 10° NNW
ATLAS 5 CENTAUR R/B 3.4 22:25:44 10° NNW 22:28:46 23° NNE 22:29:34 22° NE
RESURS DK-1 3.8 22:30:06 34° N 22:30:06 34° N 22:32:45 10° NNE
Cosmos 2237 Rocket 3.5 22:29:12 15° WSW 22:33:22 37° NW 22:38:40 10° NNE
Cosmos 1605 Rocket 4.0 22:32:45 62° WSW 22:33:28 68° WNW 22:39:34 10° N
Cosmos 1459 Rocket 4.4 22:33:28 49° E 22:33:31 49° E 22:39:35 10° NNE
Cosmos 1269 Rocket 4.1 22:32:30 10° NNW 22:37:13 71° NW 22:37:13 71° NW
Cosmos 2297 3.9 22:32:12 10° NW 22:37:29 60° W 22:37:29 60° W
ARIANE 5 R/B 3.6 22:40:11 44° NW 22:40:11 44° NW 22:43:16 10° NNW
Cosmos 1975 Rocket 4.4 22:38:21 10° NNW 22:41:32 34° WNW 22:41:32 34° WNW
COSMOS 2455 3.2 22:38:23 10° NW 22:44:22 58° NE 22:45:16 53° E
Cosmos 304 Rocket 4.5 22:43:32 10° NNW 22:47:28 50° NNE 22:47:28 50° NNE
Cosmos 44 4.3 22:51:59 43° ENE 22:51:59 43° ENE 22:55:38 10° NE
MetOp-A 4.3 22:51:08 61° NNE 22:51:08 61° NNE 22:55:25 10° NNW
Cosmos 2150 Rocket 4.4 22:54:11 55° WNW 22:54:11 55° WNW 22:59:15 10° NNE
Cosmos 2173 Rocket 3.9 22:55:45 71° E 22:55:45 71° E 23:01:43 10° NNE
CZ-2C R/B 4.0 22:52:12 10° NNE 22:55:50 37° ENE 22:55:50 37° ENE
USA 234 3.6 22:52:51 10° E 22:59:18 65° NNE 23:05:47 10° WNW
Cosmos 2100 Rocket 3.8 23:00:25 78° E 23:00:25 78° E 23:06:35 10° NNE
Cosmos 2251 Rocket 4.1 22:58:13 10° NNW 23:03:23 49° ENE 23:03:27 49° ENE
Cosmos 371 Rocket 3.9 22:58:40 10° NNW 23:02:35 54° N 23:02:35 54° N
Cosmos 2369 Rocket 3.2 22:58:33 10° NW 23:02:43 34° W 23:02:43 34° W
Cosmos 1656 4.3 23:03:02 10° NNW 23:08:18 46° NE 23:08:53 44° ENE
NOSS 3-1 (A) 3.8 23:11:21 10° NW 23:18:11 89° SW 23:19:58 59° SE
Cosmos 1943 3.3 23:21:35 73° NE 23:21:35 73° NE 23:26:44 10° NNE
Cosmos 1697 Rocket 4.4 23:16:25 10° NNW 23:21:17 28° NE 23:24:53 15° E
SJ 16-02 2.7 23:30:43 10° NNW 23:33:17 35° NNW 23:33:17 35° NNW
Cosmos 407 Rocket 4.3 23:30:38 10° NNW 23:34:21 42° WNW 23:34:21 42° WNW
Meteor 2-12 Rocket 4.3 23:30:03 10° N 23:36:09 81° E 23:36:15 80° E
Cosmos 1980 Rocket 4.4 23:32:07 10° NNW 23:36:30 22° NNE 23:40:52 10° E
Cosmos 1864 Rocket 4.4 23:39:22 79° WSW 23:39:35 81° W 23:45:58 10° N
ACS3 Solar Sail 3.0 23:34:38 10° NNE 23:39:44 28° E 23:40:25 27° E
SL-16 R/B 3.4 23:39:53 31° W 23:41:25 37° NW 23:46:42 10° NNE
CZ-2C R/B 2.8 23:44:18 66° WNW 23:44:18 66° WNW 23:49:19 10° NNW
Cosmos 1802 Rocket 3.9 23:43:35 76° WSW 23:43:54 78° W 23:50:15 10° N
SL-08 R/B 4.3 23:44:27 83° ESE 23:44:32 83° E 23:50:44 10° NNE
Meteor 2-3 Rocket 4.2 23:41:01 10° NNW 23:45:50 48° WNW 23:45:50 48° WNW
Cosmos 1725 Rocket 3.9 23:48:08 76° WSW 23:48:26 78° W 23:54:48 10° N
Cosmos 1818 3.9 23:45:39 10° NW 23:51:05 63° NE 23:51:37 59° ENE
